Tiempo cada hora Murcia

Hoy, 5 Diciembre, Sábado

Tiempo Temperatura Precipitaciones Viento Presión Humedad
00:00 +7°C° 0 mm 5 mps 744 mmHg 69%
01:00 +7°C° 0 mm 5 mps 744 mmHg 69%
02:00 +5°C° 0 mm 6 mps 744 mmHg 69%
03:00 +5°C° 0 mm 6 mps 745 mmHg 69%
04:00 +4°C° 0 mm 6 mps 745 mmHg 68%
05:00 +5°C° 0 mm 5 mps 746 mmHg 68%
06:00 +5°C° 0 mm 4 mps 746 mmHg 70%
07:00 +6°C° 0 mm 5 mps 747 mmHg 65%
08:00 +6°C° 0 mm 7 mps 748 mmHg 60%
09:00 +6°C° 0 mm 8 mps 748 mmHg 56%
10:00 +9°C° 0 mm 8 mps 748 mmHg 50%
11:00 +10°C° 0 mm 8 mps 749 mmHg 45%
12:00 +11°C° 0 mm 9 mps 749 mmHg 40%
13:00 +11°C° 0 mm 8 mps 749 mmHg 39%
14:00 +11°C° 0 mm 8 mps 749 mmHg 38%
15:00 +11°C° 0 mm 8 mps 749 mmHg 38%
16:00 +10°C° 0 mm 7 mps 749 mmHg 42%
17:00 +9°C° 0 mm 5 mps 750 mmHg 47%
18:00 +7°C° 0 mm 4 mps 750 mmHg 51%
19:00 +7°C° 0 mm 4 mps 751 mmHg 53%
20:00 +7°C° 0 mm 4 mps 751 mmHg 55%
21:00 +7°C° 0 mm 5 mps 752 mmHg 57%
22:00 +7°C° 0 mm 5 mps 752 mmHg 59%
23:00 +7°C° 0 mm 5 mps 752 mmHg 60%

Mañana, 6 Diciembre, Domingo

Tiempo Temperatura Precipitaciones Viento Presión Humedad
00:00 +7°C° 0 mm 5 mps 752 mmHg 61%
01:00 +7°C° 0 mm 5 mps 752 mmHg 63%
02:00 +6°C° 0 mm 5 mps 752 mmHg 64%
03:00 +6°C° 0 mm 4 mps 752 mmHg 66%
04:00 +6°C° 0 mm 5 mps 752 mmHg 68%
05:00 +6°C° 0 mm 5 mps 752 mmHg 70%
06:00 +5°C° 0 mm 6 mps 752 mmHg 73%
07:00 +7°C° 0 mm 6 mps 752 mmHg 66%
08:00 +8°C° 0 mm 7 mps 753 mmHg 60%
09:00 +7°C° 0 mm 8 mps 753 mmHg 54%
10:00 +10°C° 0 mm 9 mps 753 mmHg 48%
11:00 +11°C° 0 mm 9 mps 753 mmHg 43%
12:00 +12°C° 0 mm 10 mps 753 mmHg 38%
13:00 +12°C° 0 mm 10 mps 753 mmHg 38%
14:00 +12°C° 0 mm 10 mps 753 mmHg 38%
15:00 +11°C° 0 mm 10 mps 753 mmHg 39%
16:00 +10°C° 0 mm 9 mps 753 mmHg 43%
17:00 +9°C° 0 mm 7 mps 754 mmHg 48%
18:00 +8°C° 0 mm 6 mps 754 mmHg 53%
19:00 +7°C° 0 mm 6 mps 754 mmHg 54%
20:00 +7°C° 0 mm 6 mps 755 mmHg 56%
21:00 +7°C° 0 mm 5 mps 755 mmHg 58%
22:00 +7°C° 0 mm 5 mps 755 mmHg 60%
23:00 +6°C° 0 mm 4 mps 755 mmHg 62%

Pasado mañana, 7 Diciembre, Lunes

Tiempo Temperatura Precipitaciones Viento Presión Humedad
00:00 +6°C° 0 mm 4 mps 756 mmHg 64%
01:00 +6°C° 0 mm 4 mps 756 mmHg 66%
02:00 +6°C° 0 mm 4 mps 755 mmHg 67%
03:00 +6°C° 0 mm 4 mps 755 mmHg 68%
04:00 +6°C° 0 mm 4 mps 755 mmHg 69%
05:00 +6°C° 0 mm 4 mps 755 mmHg 70%
06:00 +6°C° 0 mm 4 mps 755 mmHg 71%
07:00 +8°C° 0 mm 4 mps 755 mmHg 68%
08:00 +10°C° 0 mm 4 mps 755 mmHg 66%
09:00 +11°C° 0 mm 4 mps 755 mmHg 63%
10:00 +12°C° 0 mm 5 mps 754 mmHg 59%
11:00 +14°C° 0 mm 6 mps 754 mmHg 54%
12:00 +16°C° 0 mm 7 mps 754 mmHg 50%
13:00 +16°C° 0 mm 7 mps 753 mmHg 50%
14:00 +16°C° 0 mm 8 mps 752 mmHg 51%
15:00 +16°C° 0 mm 8 mps 752 mmHg 51%
16:00 +15°C° 0 mm 7 mps 752 mmHg 55%
17:00 +14°C° 0 mm 7 mps 752 mmHg 58%
18:00 +13°C° 0 mm 6 mps 752 mmHg 61%
19:00 +13°C° 0 mm 6 mps 752 mmHg 61%
20:00 +11°C° 0 mm 6 mps 752 mmHg 62%
21:00 +11°C° 0 mm 6 mps 752 mmHg 62%
22:00 +11°C° 0 mm 6 mps 752 mmHg 61%
23:00 +11°C° 0 mm 6 mps 753 mmHg 60%

8 Diciembre, Martes

Tiempo Temperatura Precipitaciones Viento Presión Humedad
00:00 +10°C° 0 mm 6 mps 753 mmHg 59%
01:00 +10°C° 0 mm 6 mps 753 mmHg 59%
02:00 +10°C° 0 mm 6 mps 753 mmHg 60%
03:00 +10°C° 0 mm 6 mps 753 mmHg 60%
04:00 +10°C° 0 mm 6 mps 753 mmHg 61%
05:00 +9°C° 0 mm 6 mps 752 mmHg 62%
06:00 +9°C° 0 mm 6 mps 752 mmHg 63%
07:00 +9°C° 0.1 mm 7 mps 753 mmHg 63%
08:00 +10°C° 0.1 mm 9 mps 753 mmHg 63%
09:00 +9°C° 0.1 mm 10 mps 753 mmHg 63%
10:00 +11°C° 0 mm 11 mps 753 mmHg 53%
11:00 +13°C° 0 mm 12 mps 754 mmHg 44%
12:00 +14°C° 0 mm 13 mps 754 mmHg 35%
13:00 +14°C° 0 mm 12 mps 754 mmHg 34%
14:00 +14°C° 0 mm 12 mps 754 mmHg 34%
15:00 +14°C° 0 mm 12 mps 754 mmHg 34%
16:00 +13°C° 0 mm 10 mps 754 mmHg 39%
17:00 +12°C° 0 mm 9 mps 754 mmHg 43%
18:00 +10°C° 0 mm 7 mps 755 mmHg 48%
19:00 +10°C° 0 mm 7 mps 755 mmHg 50%
20:00 +10°C° 0 mm 7 mps 755 mmHg 53%
21:00 +9°C° 0 mm 8 mps 756 mmHg 56%
22:00 +9°C° 0 mm 8 mps 756 mmHg 57%
23:00 +9°C° 0 mm 8 mps 756 mmHg 59%

9 Diciembre, Miércoles

Tiempo Temperatura Precipitaciones Viento Presión Humedad
00:00 +9°C° 0 mm 8 mps 756 mmHg 61%
01:00 +9°C° 0 mm 8 mps 756 mmHg 61%
02:00 +7°C° 0 mm 9 mps 757 mmHg 61%
03:00 +7°C° 0 mm 10 mps 757 mmHg 62%
04:00 +7°C° 0 mm 9 mps 757 mmHg 61%
05:00 +7°C° 0 mm 9 mps 757 mmHg 60%
06:00 +7°C° 0 mm 9 mps 758 mmHg 59%
07:00 +7°C° 0 mm 9 mps 758 mmHg 57%
08:00 +8°C° 0 mm 10 mps 759 mmHg 55%
09:00 +8°C° 0 mm 10 mps 759 mmHg 53%
10:00 +11°C° 0 mm 10 mps 759 mmHg 47%
11:00 +12°C° 0 mm 10 mps 759 mmHg 41%
12:00 +13°C° 0 mm 10 mps 759 mmHg 34%
13:00 +13°C° 0 mm 9 mps 759 mmHg 35%
14:00 +13°C° 0 mm 9 mps 759 mmHg 36%
15:00 +13°C° 0 mm 8 mps 759 mmHg 36%
16:00 +12°C° 0 mm 7 mps 759 mmHg 40%
17:00 +12°C° 0 mm 5 mps 759 mmHg 45%
18:00 +11°C° 0 mm 4 mps 760 mmHg 49%
19:00 +11°C° 0 mm 4 mps 760 mmHg 51%
20:00 +11°C° 0 mm 3 mps 760 mmHg 52%
21:00 +11°C° 0 mm 3 mps 761 mmHg 54%
22:00 +10°C° 0 mm 3 mps 761 mmHg 55%
23:00 +10°C° 0 mm 2 mps 761 mmHg 56%

10 Diciembre, Jueves

Tiempo Temperatura Precipitaciones Viento Presión Humedad
00:00 +10°C° 0 mm 2 mps 761 mmHg 57%
01:00 +9°C° 0 mm 2 mps 761 mmHg 58%
02:00 +9°C° 0 mm 2 mps 760 mmHg 59%
03:00 +9°C° 0 mm 3 mps 760 mmHg 59%
04:00 +9°C° 0 mm 3 mps 760 mmHg 61%
05:00 +9°C° 0 mm 2 mps 760 mmHg 63%
06:00 +8°C° 0 mm 2 mps 760 mmHg 65%
07:00 +10°C° 0 mm 3 mps 760 mmHg 63%
08:00 +11°C° 0 mm 3 mps 760 mmHg 61%
09:00 +12°C° 0 mm 4 mps 760 mmHg 60%
10:00 +14°C° 0 mm 4 mps 760 mmHg 57%
11:00 +16°C° 0 mm 5 mps 760 mmHg 54%
12:00 +17°C° 0 mm 5 mps 760 mmHg 51%
13:00 +19°C° 0 mm 6 mps 760 mmHg 51%
14:00 +18°C° 0 mm 7 mps 760 mmHg 50%
15:00 +18°C° 0 mm 8 mps 759 mmHg 50%
16:00 +17°C° 0 mm 7 mps 759 mmHg 55%
17:00 +16°C° 0 mm 5 mps 759 mmHg 60%
18:00 +14°C° 0 mm 4 mps 759 mmHg 65%
19:00 +14°C° 0 mm 4 mps 759 mmHg 65%
20:00 +14°C° 0 mm 3 mps 759 mmHg 65%
21:00 +14°C° 0 mm 3 mps 759 mmHg 66%
22:00 +14°C° 0.1 mm 3 mps 759 mmHg 68%
23:00 +14°C° 0.1 mm 3 mps 759 mmHg 70%
Mostrar más

Necesitamos Su Consentimiento

Meteoprog y nuestros Proveedores de Servicios pueden almacenar y acceder a sus datos personales como cookies, identificadores de dispositivo u otras tecnologías similares de su dispositivo y procesar dichos datos para personalizar contenido y anuncios, además de ofrecer funciones de redes sociales y analizar el tráfico.

  • Almacenar y/o acceder a información en su dispositivo

    Se puede almacenar o acceder a cookies, identificadores de dispositivo u otra información de su dispositivo para los fines anteriormente indicados.

  • Anuncios y contenido personalizados, medición de anuncios y contenido, percepciones del público, y desarrollo de productos

    Los anuncios y el contenido pueden personalizarse en base a su perfil. Se pueden añadir más datos para personalizar mejor los anuncios y contenidos. Se puede medir el rendimiento de los anuncios y contenidos. Se puede obtener la percepción sobre el público que ha visto los anuncios y contenidos. Dichos datos pueden usarse para desarrollar o mejorar la experiencia del usuario, sistemas y software.

Al hacer clic en ‘Estoy De Acuerdo’ usted permitirá el uso de las cookies, identificadores de dispositivo, balizas web u otras tecnologías similares indicadas. Su configuración puede cambiarse desde el navegador de su dispositivo.

Para ciertos fines, los intereses legítimos pueden ser considerados por encima del consentimiento. Puede leer más sobre ello en nuestra Política de Privacidad y Cookies.